Location: Beuvrequen
(50.8014°N, 1.6652°E)
Time: 03:54:24
(UTC+00:00)

CENTAUR R/B - Pass Details

Date: 16 October 2021
Orbit: 728 x 1459 km, 63.4° (Epoch: 26 November)

Event Time Altitude Azimuth Distance (km) Brightness Sun altitude
Rises 18:51:27 0° 282° (WNW) 3,699 7.2 -18.5°
Reaches altitude 10° 18:54:13 10° 293° (WNW) 2,861 6.1 -19.0°
Maximum altitude 19:00:17 32° 355° (N) 1,911 4.1 -19.9°
Enters shadow 19:06:07 14° 51° (NE) 2,990 4.7 -20.8°
